Time,TemperatureF,DewpointF,PressureIn,WindDirection,WindDirectionDegrees,WindSpeedMPH,WindSpeedGustMPH,Humidity,HourlyPrecipIn,Conditions,Clouds,dailyrainin,SoftwareType,DateUTC
2013-02-05 00:04:00,50.7,50.5,30.08,ESE,112,0.0,3.3,99,0.00,,,0.00,Rainwise IP-100,2013-02-05 08:04:00,
2013-02-05 00:09:00,50.6,50.5,30.07,ESE,112,1.2,3.5,99,0.00,,,0.00,Rainwise IP-100,2013-02-05 08:09:00,
2013-02-05 00:14:00,50.4,50.5,30.07,ESE,112,0.0,2.3,99,0.00,,,0.00,Rainwise IP-100,2013-02-05 08:14:00,
2013-02-05 00:19:00,50.3,50.5,30.07,North,360,1.2,3.0,99,0.00,,,0.00,Rainwise IP-100,2013-02-05 08:19:00,
2013-02-05 00:24:00,50.3,50.5,30.07,ESE,112,1.2,2.3,99,0.00,,,0.00,Rainwise IP-100,2013-02-05 08:24:00,
2013-02-05 00:29:00,50.2,50.0,30.07,North,360,1.6,2.3,99,0.00,,,0.00,Rainwise IP-100,2013-02-05 08:29:00,
2013-02-05 00:34:00,50.1,50.0,30.07,North,360,0.0,2.1,99,0.00,,,0.00,Rainwise IP-100,2013-02-05 08:34:00,
2013-02-05 00:39:00,50.0,50.0,30.07,North,360,1.4,2.3,99,0.00,,,0.00,Rainwise IP-100,2013-02-05 08:39:00,
2013-02-05 00:44:00,50.0,50.0,30.07,NNE,22,0.0,2.6,99,0.00,,,0.00,Rainwise IP-100,2013-02-05 08:44:00,
2013-02-05 00:49:00,49.9,50.0,30.07,NNE,22,0.0,1.6,99,0.00,,,0.00,Rainwise IP-100,2013-02-05 08:49:00,
2013-02-05 00:54:00,49.8,50.0,30.07,NNE,22,0.0,1.2,99,0.00,,,0.00,Rainwise IP-100,2013-02-05 08:54:00,
2013-02-05 00:59:00,49.8,50.0,30.06,NNE,22,0.0,1.4,99,0.00,,,0.00,Rainwise IP-100,2013-02-05 08:59:00,
2013-02-05 01:04:00,49.8,50.0,30.06,NNE,22,1.4,3.3,99,0.00,,,0.00,Rainwise IP-100,2013-02-05 09:04:00,
2013-02-05 01:09:00,49.7,50.0,30.06,NNE,22,2.1,2.1,99,0.00,,,0.00,Rainwise IP-100,2013-02-05 09:09:00,
2013-02-05 01:14:00,49.6,50.0,30.06,NNE,22,0.0,2.1,99,0.00,,,0.00,Rainwise IP-100,2013-02-05 09:14:00,
2013-02-05 01:19:00,49.5,50.0,30.06,NNE,22,0.0,1.6,99,0.00,,,0.00,Rainwise IP-100,2013-02-05 09:19:00,
2013-02-05 01:24:00,49.5,50.0,30.06,NNE,22,0.0,0.0,99,0.00,,,0.00,Rainwise IP-100,2013-02-05 09:24:00,
2013-02-05 01:29:00,49.5,50.0,30.06,NNE,22,0.0,0.0,99,0.00,,,0.00,Rainwise IP-100,2013-02-05 09:29:00,
2013-02-05 01:34:00,49.4,49.0,30.06,NNE,22,0.0,0.0,99,0.00,,,0.00,Rainwise IP-100,2013-02-05 09:34:00,
2013-02-05 01:39:00,49.4,49.0,30.06,NNE,22,0.0,0.0,99,0.00,,,0.00,Rainwise IP-100,2013-02-05 09:39:00,
2013-02-05 01:44:00,49.4,49.0,30.06,NNE,22,0.0,0.0,99,0.00,,,0.00,Rainwise IP-100,2013-02-05 09:44:00,
2013-02-05 01:49:00,49.4,49.0,30.06,NNE,22,0.0,0.0,99,0.00,,,0.00,Rainwise IP-100,2013-02-05 09:49:00,
2013-02-05 01:54:00,49.5,50.0,30.06,NNE,22,0.0,0.0,99,0.00,,,0.00,Rainwise IP-100,2013-02-05 09:54:00,
2013-02-05 01:59:00,49.5,50.0,30.06,NNE,22,0.0,0.0,99,0.00,,,0.00,Rainwise IP-100,2013-02-05 09:59:00,
2013-02-05 02:04:00,49.5,50.0,30.06,NNE,22,0.0,0.0,99,0.00,,,0.00,Rainwise IP-100,2013-02-05 10:04:00,
2013-02-05 02:09:00,49.5,50.0,30.06,NNE,22,0.0,0.0,99,0.00,,,0.00,Rainwise IP-100,2013-02-05 10:09:00,
2013-02-05 02:14:00,49.5,50.0,30.06,NNE,22,1.2,2.1,100,0.00,,,0.00,Rainwise IP-100,2013-02-05 10:14:00,
2013-02-05 02:19:00,49.5,50.0,30.05,NNE,22,0.0,2.1,99,0.00,,,0.00,Rainwise IP-100,2013-02-05 10:19:00,
2013-02-05 02:24:00,49.4,49.0,30.05,NNE,22,0.0,0.0,99,0.00,,,0.00,Rainwise IP-100,2013-02-05 10:24:00,
2013-02-05 02:29:00,49.4,49.0,30.05,NNE,22,0.0,0.0,99,0.00,,,0.00,Rainwise IP-100,2013-02-05 10:29:00,
2013-02-05 02:34:00,49.5,50.0,30.05,NNE,22,0.0,0.0,100,0.00,,,0.00,Rainwise IP-100,2013-02-05 10:34:00,
2013-02-05 02:39:00,49.6,50.0,30.05,NNE,22,0.0,0.0,100,0.00,,,0.00,Rainwise IP-100,2013-02-05 10:39:00,
2013-02-05 02:44:00,49.7,50.0,30.05,NNE,22,0.0,0.0,100,0.00,,,0.00,Rainwise IP-100,2013-02-05 10:44:00,
2013-02-05 02:49:00,49.8,50.0,30.04,NNE,22,0.0,1.2,100,0.00,,,0.00,Rainwise IP-100,2013-02-05 10:49:00,
2013-02-05 02:54:00,49.9,50.0,30.05,NNE,22,1.2,1.9,100,0.00,,,0.00,Rainwise IP-100,2013-02-05 10:54:00,
2013-02-05 02:59:00,49.8,50.0,30.05,NNE,22,0.0,2.6,100,0.00,,,0.00,Rainwise IP-100,2013-02-05 10:59:00,
2013-02-05 03:04:00,49.8,50.0,30.04,NNE,22,0.0,1.6,100,0.00,,,0.00,Rainwise IP-100,2013-02-05 11:04:00,
2013-02-05 03:09:00,49.9,50.0,30.04,NNE,22,0.0,0.0,100,0.00,,,0.00,Rainwise IP-100,2013-02-05 11:09:00,
2013-02-05 03:14:00,49.9,50.0,30.04,NNE,22,1.4,2.6,100,0.00,,,0.00,Rainwise IP-100,2013-02-05 11:14:00,
2013-02-05 03:19:00,49.8,50.0,30.04,NNE,22,0.0,1.9,100,0.00,,,0.00,Rainwise IP-100,2013-02-05 11:19:00,
2013-02-05 03:24:00,49.7,50.0,30.05,NNE,22,1.2,1.2,100,0.00,,,0.00,Rainwise IP-100,2013-02-05 11:24:00,
2013-02-05 03:29:00,49.7,50.0,30.04,NNE,22,0.0,1.4,100,0.00,,,0.00,Rainwise IP-100,2013-02-05 11:29:00,
2013-02-05 03:34:00,49.6,50.0,30.04,NNE,22,0.0,1.4,100,0.00,,,0.00,Rainwise IP-100,2013-02-05 11:34:00,
2013-02-05 03:39:00,49.5,50.0,30.04,NNE,22,1.2,2.6,100,0.00,,,0.00,Rainwise IP-100,2013-02-05 11:39:00,
2013-02-05 03:44:00,49.5,50.0,30.04,NNE,22,0.0,1.6,100,0.00,,,0.00,Rainwise IP-100,2013-02-05 11:44:00,
2013-02-05 03:49:00,49.5,50.0,30.04,NNE,22,0.0,1.2,100,0.00,,,0.00,Rainwise IP-100,2013-02-05 11:49:00,
2013-02-05 03:54:00,49.5,50.0,30.03,NNE,22,1.4,1.9,100,0.00,,,0.00,Rainwise IP-100,2013-02-05 11:54:00,
2013-02-05 03:59:00,49.5,50.0,30.03,NNE,22,0.0,2.3,100,0.00,,,0.00,Rainwise IP-100,2013-02-05 11:59:00,
2013-02-05 04:04:00,49.5,50.0,30.03,NNE,22,0.0,1.4,100,0.00,,,0.00,Rainwise IP-100,2013-02-05 12:04:00,
2013-02-05 04:09:00,49.4,49.0,30.03,NNE,22,0.0,1.4,100,0.00,,,0.00,Rainwise IP-100,2013-02-05 12:09:00,
2013-02-05 04:14:00,49.4,49.0,30.03,ESE,112,0.0,2.1,100,0.00,,,0.00,Rainwise IP-100,2013-02-05 12:14:00,
2013-02-05 04:19:00,49.4,49.0,30.03,NNE,22,0.0,1.6,100,0.00,,,0.00,Rainwise IP-100,2013-02-05 12:19:00,
2013-02-05 04:24:00,49.4,49.0,30.03,NNE,22,0.0,1.4,100,0.00,,,0.00,Rainwise IP-100,2013-02-05 12:24:00,
2013-02-05 04:29:00,49.3,49.0,30.03,NNE,22,0.0,0.0,100,0.00,,,0.00,Rainwise IP-100,2013-02-05 12:29:00,
2013-02-05 04:34:00,49.2,49.0,30.03,NNE,22,0.0,2.1,100,0.00,,,0.00,Rainwise IP-100,2013-02-05 12:34:00,
2013-02-05 04:39:00,49.2,49.0,30.03,NNE,22,1.4,2.3,100,0.00,,,0.00,Rainwise IP-100,2013-02-05 12:39:00,
2013-02-05 04:44:00,49.1,49.0,30.03,NNE,22,0.0,1.4,100,0.00,,,0.00,Rainwise IP-100,2013-02-05 12:44:00,
2013-02-05 04:49:00,49.1,49.0,30.03,NNE,22,1.6,1.9,100,0.00,,,0.00,Rainwise IP-100,2013-02-05 12:49:00,
2013-02-05 04:54:00,49.1,49.0,30.03,NNE,22,1.2,2.8,100,0.00,,,0.00,Rainwise IP-100,2013-02-05 12:54:00,
2013-02-05 04:59:00,49.1,49.0,30.03,NNE,22,0.0,1.9,100,0.00,,,0.00,Rainwise IP-100,2013-02-05 12:59:00,
2013-02-05 05:04:00,49.1,49.0,30.03,NNE,22,0.0,1.2,100,0.00,,,0.00,Rainwise IP-100,2013-02-05 13:04:00,
2013-02-05 05:09:00,49.1,49.0,30.03,NNE,22,0.0,1.2,100,0.00,,,0.00,Rainwise IP-100,2013-02-05 13:09:00,
2013-02-05 05:14:00,49.1,49.0,30.02,NNE,22,1.2,2.1,100,0.00,,,0.00,Rainwise IP-100,2013-02-05 13:14:00,
2013-02-05 05:19:00,49.0,49.0,30.03,NNE,22,2.1,2.1,100,0.00,,,0.00,Rainwise IP-100,2013-02-05 13:19:00,
2013-02-05 05:24:00,49.0,49.0,30.03,NNE,22,0.0,2.3,100,0.00,,,0.00,Rainwise IP-100,2013-02-05 13:24:00,
2013-02-05 05:29:00,49.0,49.0,30.03,NNE,22,0.0,0.0,100,0.00,,,0.00,Rainwise IP-100,2013-02-05 13:29:00,
2013-02-05 05:34:00,49.0,49.0,30.02,NNE,22,0.0,0.0,100,0.00,,,0.00,Rainwise IP-100,2013-02-05 13:34:00,
2013-02-05 05:39:00,49.0,49.0,30.03,NNE,22,0.0,0.0,100,0.00,,,0.00,Rainwise IP-100,2013-02-05 13:39:00,
2013-02-05 05:44:00,48.9,49.0,30.03,NNE,22,0.0,0.0,100,0.00,,,0.00,Rainwise IP-100,2013-02-05 13:44:00,
2013-02-05 05:49:00,48.8,49.0,30.03,NNE,22,0.0,0.0,100,0.00,,,0.00,Rainwise IP-100,2013-02-05 13:49:00,
2013-02-05 05:54:00,48.7,49.0,30.03,NNE,22,0.0,1.2,100,0.00,,,0.00,Rainwise IP-100,2013-02-05 13:54:00,
2013-02-05 05:59:00,48.7,49.0,30.03,NNE,22,0.0,1.2,100,0.00,,,0.00,Rainwise IP-100,2013-02-05 13:59:00,
2013-02-05 06:04:00,48.6,49.0,30.03,NNE,22,0.0,1.4,100,0.00,,,0.00,Rainwise IP-100,2013-02-05 14:04:00,
2013-02-05 06:09:00,48.6,49.0,30.04,NNE,22,0.0,1.6,100,0.00,,,0.00,Rainwise IP-100,2013-02-05 14:09:00,
2013-02-05 06:14:00,48.5,49.0,30.04,NNE,22,0.0,0.0,100,0.00,,,0.00,Rainwise IP-100,2013-02-05 14:14:00,
2013-02-05 06:19:00,48.4,48.0,30.04,NNE,22,0.0,0.0,100,0.00,,,0.00,Rainwise IP-100,2013-02-05 14:19:00,
2013-02-05 06:24:00,48.4,48.0,30.04,NNE,22,0.0,1.2,100,0.00,,,0.00,Rainwise IP-100,2013-02-05 14:24:00,
2013-02-05 06:29:00,48.3,48.0,30.05,NNE,22,0.0,0.0,100,0.00,,,0.00,Rainwise IP-100,2013-02-05 14:29:00,
2013-02-05 06:34:00,48.3,48.0,30.05,NNE,22,0.0,0.0,100,0.00,,,0.00,Rainwise IP-100,2013-02-05 14:34:00,
2013-02-05 06:39:00,48.4,48.0,30.05,NNE,22,0.0,0.0,100,0.00,,,0.00,Rainwise IP-100,2013-02-05 14:39:00,
2013-02-05 06:44:00,48.5,49.0,30.05,NNE,22,0.0,2.1,100,0.00,,,0.00,Rainwise IP-100,2013-02-05 14:44:00,
2013-02-05 06:49:00,48.5,49.0,30.06,NNE,22,0.0,1.4,100,0.00,,,0.00,Rainwise IP-100,2013-02-05 14:49:00,
2013-02-05 06:54:00,48.6,49.0,30.06,NNE,22,0.0,1.2,100,0.00,,,0.00,Rainwise IP-100,2013-02-05 14:54:00,
2013-02-05 06:59:00,48.6,49.0,30.06,NNE,22,0.0,0.0,100,0.00,,,0.00,Rainwise IP-100,2013-02-05 14:59:00,
2013-02-05 07:04:00,48.7,49.0,30.06,NNE,22,0.0,0.0,100,0.00,,,0.00,Rainwise IP-100,2013-02-05 15:04:00,
2013-02-05 07:09:00,48.6,49.0,30.06,NNE,22,0.0,0.0,100,0.00,,,0.00,Rainwise IP-100,2013-02-05 15:09:00,
2013-02-05 07:14:00,48.4,48.0,30.07,NNE,22,0.0,1.2,100,0.00,,,0.00,Rainwise IP-100,2013-02-05 15:14:00,
2013-02-05 07:19:00,48.3,48.0,30.07,NNE,22,1.2,1.9,100,0.00,,,0.00,Rainwise IP-100,2013-02-05 15:19:00,
2013-02-05 07:24:00,48.3,48.0,30.07,NNE,22,0.0,2.1,100,0.00,,,0.00,Rainwise IP-100,2013-02-05 15:24:00,
2013-02-05 07:29:00,48.2,48.0,30.08,NNE,22,0.0,1.6,100,0.00,,,0.00,Rainwise IP-100,2013-02-05 15:29:00,
2013-02-05 07:34:00,48.2,48.0,30.08,NNE,22,0.0,1.9,100,0.00,,,0.00,Rainwise IP-100,2013-02-05 15:34:00,
2013-02-05 07:39:00,48.2,48.0,30.08,NNE,22,1.4,1.4,100,0.00,,,0.00,Rainwise IP-100,2013-02-05 15:39:00,
2013-02-05 07:44:00,48.2,48.0,30.08,NNE,22,1.2,1.6,100,0.00,,,0.00,Rainwise IP-100,2013-02-05 15:44:00,
2013-02-05 07:49:00,48.3,48.0,30.08,NNE,22,0.0,2.6,100,0.00,,,0.00,Rainwise IP-100,2013-02-05 15:49:00,
2013-02-05 07:54:00,48.2,48.0,30.09,NNE,22,0.0,3.0,100,0.00,,,0.00,Rainwise IP-100,2013-02-05 15:54:00,
2013-02-05 07:59:00,48.2,48.0,30.08,NNE,22,0.0,2.1,100,0.00,,,0.00,Rainwise IP-100,2013-02-05 15:59:00,
2013-02-05 08:04:00,48.1,48.0,30.09,North,360,1.9,3.5,100,0.00,,,0.00,Rainwise IP-100,2013-02-05 16:04:00,
2013-02-05 08:09:00,47.9,48.0,30.09,NNE,22,0.0,2.8,100,0.00,,,0.00,Rainwise IP-100,2013-02-05 16:09:00,
2013-02-05 08:14:00,47.8,48.0,30.09,North,360,1.2,2.3,100,0.00,,,0.00,Rainwise IP-100,2013-02-05 16:14:00,
2013-02-05 08:19:00,47.7,47.5,30.08,North,360,2.6,4.4,100,0.00,,,0.00,Rainwise IP-100,2013-02-05 16:19:00,
2013-02-05 08:24:00,47.7,47.5,30.09,NNE,22,0.0,4.4,100,0.00,,,0.00,Rainwise IP-100,2013-02-05 16:24:00,
2013-02-05 08:29:00,47.8,48.0,30.09,NNW,337,0.0,3.5,100,0.00,,,0.00,Rainwise IP-100,2013-02-05 16:29:00,
2013-02-05 08:34:00,48.0,48.0,30.09,NNE,22,0.0,2.8,100,0.00,,,0.00,Rainwise IP-100,2013-02-05 16:34:00,
2013-02-05 08:39:00,48.0,48.0,30.09,NNE,22,1.6,2.1,100,0.00,,,0.00,Rainwise IP-100,2013-02-05 16:39:00,
2013-02-05 08:44:00,48.1,48.0,30.09,NNE,22,1.6,2.3,100,0.00,,,0.00,Rainwise IP-100,2013-02-05 16:44:00,
2013-02-05 08:49:00,48.1,48.0,30.10,NNE,22,0.0,3.7,100,0.00,,,0.00,Rainwise IP-100,2013-02-05 16:49:00,
2013-02-05 08:54:00,48.1,48.0,30.10,NNE,22,1.6,2.6,100,0.00,,,0.00,Rainwise IP-100,2013-02-05 16:54:00,
2013-02-05 08:59:00,48.1,48.0,30.10,NNE,22,0.0,3.3,100,0.00,,,0.00,Rainwise IP-100,2013-02-05 16:59:00,
2013-02-05 09:04:00,48.3,48.0,30.10,NNE,22,3.0,4.0,100,0.00,,,0.00,Rainwise IP-100,2013-02-05 17:04:00,
2013-02-05 09:09:00,48.4,48.0,30.10,NNE,22,0.0,3.0,100,0.00,,,0.00,Rainwise IP-100,2013-02-05 17:09:00,
2013-02-05 09:14:00,48.6,49.0,30.10,NNE,22,0.0,4.0,100,0.00,,,0.00,Rainwise IP-100,2013-02-05 17:14:00,
2013-02-05 09:19:00,48.7,49.0,30.10,NNE,22,0.0,2.8,100,0.00,,,0.00,Rainwise IP-100,2013-02-05 17:19:00,
2013-02-05 09:24:00,48.8,49.0,30.10,NNE,22,0.0,2.8,100,0.00,,,0.00,Rainwise IP-100,2013-02-05 17:24:00,
2013-02-05 09:29:00,48.9,49.0,30.11,NNE,22,0.0,1.6,100,0.00,,,0.00,Rainwise IP-100,2013-02-05 17:29:00,
2013-02-05 09:34:00,49.1,49.0,30.11,NNE,22,0.0,1.2,100,0.00,,,0.00,Rainwise IP-100,2013-02-05 17:34:00,
2013-02-05 09:39:00,49.4,49.0,30.11,NNE,22,0.0,1.2,100,0.00,,,0.00,Rainwise IP-100,2013-02-05 17:39:00,
2013-02-05 09:44:00,49.6,50.0,30.11,NNE,22,0.0,0.0,100,0.00,,,0.00,Rainwise IP-100,2013-02-05 17:44:00,
2013-02-05 09:49:00,49.8,50.0,30.11,NNE,22,0.0,2.3,100,0.00,,,0.00,Rainwise IP-100,2013-02-05 17:49:00,
2013-02-05 09:54:00,50.0,50.0,30.11,NNE,22,0.0,1.6,99,0.00,,,0.00,Rainwise IP-100,2013-02-05 17:54:00,
2013-02-05 09:59:00,50.1,50.0,30.12,NNE,22,0.0,2.8,99,0.00,,,0.00,Rainwise IP-100,2013-02-05 17:59:00,
2013-02-05 10:04:00,50.4,50.5,30.12,NNE,22,0.0,1.6,99,0.00,,,0.00,Rainwise IP-100,2013-02-05 18:04:00,
2013-02-05 10:09:00,50.6,50.5,30.12,North,360,0.0,2.3,99,0.00,,,0.00,Rainwise IP-100,2013-02-05 18:09:00,
2013-02-05 10:14:00,50.7,50.5,30.12,North,360,0.0,1.4,99,0.00,,,0.00,Rainwise IP-100,2013-02-05 18:14:00,
2013-02-05 10:19:00,50.9,51.0,30.11,NNE,22,2.1,2.6,99,0.00,,,0.00,Rainwise IP-100,2013-02-05 18:19:00,
2013-02-05 10:24:00,51.2,51.0,30.11,NNE,22,0.0,2.3,99,0.00,,,0.00,Rainwise IP-100,2013-02-05 18:24:00,
2013-02-05 10:29:00,51.4,50.5,30.11,NNE,22,0.0,1.4,98,0.00,,,0.00,Rainwise IP-100,2013-02-05 18:29:00,
2013-02-05 10:34:00,51.6,51.0,30.11,NNE,22,0.0,1.2,98,0.00,,,0.00,Rainwise IP-100,2013-02-05 18:34:00,
2013-02-05 10:39:00,51.8,51.0,30.11,NNE,22,0.0,1.2,97,0.00,,,0.00,Rainwise IP-100,2013-02-05 18:39:00,
2013-02-05 10:44:00,51.9,51.0,30.12,NNE,22,0.0,0.0,97,0.00,,,0.00,Rainwise IP-100,2013-02-05 18:44:00,
2013-02-05 10:49:00,52.1,51.0,30.12,NNE,22,0.0,0.0,97,0.00,,,0.00,Rainwise IP-100,2013-02-05 18:49:00,
2013-02-05 10:54:00,52.2,51.0,30.12,NNE,22,0.0,0.0,97,0.00,,,0.00,Rainwise IP-100,2013-02-05 18:54:00,
2013-02-05 10:59:00,52.1,51.0,30.12,South,180,1.9,3.0,97,0.00,,,0.00,Rainwise IP-100,2013-02-05 18:59:00,
2013-02-05 11:04:00,52.2,51.0,30.11,South,180,1.2,2.6,97,0.00,,,0.00,Rainwise IP-100,2013-02-05 19:04:00,
2013-02-05 11:09:00,52.4,51.0,30.11,SSW,202,1.9,1.9,97,0.00,,,0.00,Rainwise IP-100,2013-02-05 19:09:00,
2013-02-05 11:14:00,52.5,51.0,30.11,SSE,157,2.1,2.3,96,0.00,,,0.00,Rainwise IP-100,2013-02-05 19:14:00,
2013-02-05 11:19:00,52.5,51.0,30.11,SSE,157,0.0,2.6,96,0.00,,,0.00,Rainwise IP-100,2013-02-05 19:19:00,
2013-02-05 11:24:00,52.7,51.0,30.11,SSE,157,0.0,1.6,96,0.00,,,0.00,Rainwise IP-100,2013-02-05 19:24:00,
2013-02-05 11:29:00,52.7,51.0,30.10,SSW,202,0.0,2.6,95,0.00,,,0.00,Rainwise IP-100,2013-02-05 19:29:00,
2013-02-05 11:34:00,52.8,51.0,30.10,SE,135,0.0,1.9,94,0.00,,,0.00,Rainwise IP-100,2013-02-05 19:34:00,
2013-02-05 11:39:00,53.0,51.0,30.10,SE,135,0.0,2.3,94,0.00,,,0.00,Rainwise IP-100,2013-02-05 19:39:00,
2013-02-05 11:44:00,53.2,50.5,30.09,SE,135,0.0,1.2,93,0.00,,,0.00,Rainwise IP-100,2013-02-05 19:44:00,
2013-02-05 11:49:00,53.4,51.0,30.09,SE,135,0.0,0.0,93,0.00,,,0.00,Rainwise IP-100,2013-02-05 19:49:00,
2013-02-05 11:54:00,53.6,51.0,30.09,North,360,0.0,1.6,92,0.00,,,0.00,Rainwise IP-100,2013-02-05 19:54:00,
2013-02-05 11:59:00,53.7,51.0,30.08,North,360,0.0,1.2,92,0.00,,,0.00,Rainwise IP-100,2013-02-05 19:59:00,
2013-02-05 12:04:00,53.6,51.0,30.07,ESE,112,0.0,1.2,92,0.00,,,0.00,Rainwise IP-100,2013-02-05 20:04:00,
2013-02-05 12:09:00,53.6,51.0,30.08,NNE,22,0.0,0.0,92,0.00,,,0.00,Rainwise IP-100,2013-02-05 20:09:00,
2013-02-05 12:14:00,53.7,50.5,30.07,NNE,22,0.0,1.4,91,0.00,,,0.00,Rainwise IP-100,2013-02-05 20:14:00,
2013-02-05 12:19:00,53.9,51.0,30.07,NNE,22,0.0,1.2,91,0.00,,,0.00,Rainwise IP-100,2013-02-05 20:19:00,
2013-02-05 12:24:00,53.9,51.0,30.06,SSW,202,2.1,3.0,91,0.00,,,0.00,Rainwise IP-100,2013-02-05 20:24:00,
2013-02-05 12:29:00,53.7,50.5,30.06,SSW,202,1.4,2.1,91,0.00,,,0.00,Rainwise IP-100,2013-02-05 20:29:00,
2013-02-05 12:34:00,53.6,50.5,30.05,SSE,157,0.0,2.3,91,0.00,,,0.00,Rainwise IP-100,2013-02-05 20:34:00,
2013-02-05 12:39:00,53.8,51.0,30.05,SSE,157,0.0,1.2,91,0.00,,,0.00,Rainwise IP-100,2013-02-05 20:39:00,
2013-02-05 12:44:00,54.0,51.0,30.05,North,360,0.0,2.1,90,0.00,,,0.00,Rainwise IP-100,2013-02-05 20:44:00,
2013-02-05 12:49:00,54.3,52.0,30.05,ESE,112,0.0,1.2,90,0.00,,,0.00,Rainwise IP-100,2013-02-05 20:49:00,
2013-02-05 12:54:00,54.4,52.0,30.05,SSE,157,0.0,1.2,90,0.00,,,0.00,Rainwise IP-100,2013-02-05 20:54:00,
2013-02-05 12:59:00,54.4,51.0,30.05,SSW,202,1.6,2.3,89,0.00,,,0.00,Rainwise IP-100,2013-02-05 20:59:00,
2013-02-05 13:04:00,54.5,51.0,30.04,SSW,202,0.0,2.1,89,0.00,,,0.00,Rainwise IP-100,2013-02-05 21:04:00,
2013-02-05 13:09:00,54.6,51.0,30.04,SSW,202,0.0,0.0,88,0.00,,,0.00,Rainwise IP-100,2013-02-05 21:09:00,
2013-02-05 13:14:00,54.4,51.0,30.05,SSE,157,0.0,2.1,88,0.00,,,0.00,Rainwise IP-100,2013-02-05 21:14:00,
2013-02-05 13:19:00,54.3,51.0,30.05,SSE,157,0.0,0.0,88,0.00,,,0.00,Rainwise IP-100,2013-02-05 21:19:00,
2013-02-05 13:24:00,54.3,51.0,30.05,SSW,202,0.0,0.0,88,0.00,,,0.00,Rainwise IP-100,2013-02-05 21:24:00,
2013-02-05 13:29:00,54.2,50.5,30.05,SSW,202,1.4,4.0,89,0.00,,,0.00,Rainwise IP-100,2013-02-05 21:29:00,
2013-02-05 13:34:00,54.1,50.5,30.04,SSW,202,0.0,2.6,89,0.00,,,0.00,Rainwise IP-100,2013-02-05 21:34:00,
2013-02-05 13:39:00,54.1,50.5,30.04,SSW,202,1.6,1.6,89,0.00,,,0.00,Rainwise IP-100,2013-02-05 21:39:00,
2013-02-05 13:44:00,54.1,50.5,30.04,SSW,202,0.0,3.7,89,0.00,,,0.00,Rainwise IP-100,2013-02-05 21:44:00,
2013-02-05 13:49:00,54.1,50.5,30.04,SSW,202,0.0,1.4,89,0.00,,,0.00,Rainwise IP-100,2013-02-05 21:49:00,
2013-02-05 13:54:00,54.3,51.0,30.03,SSW,202,0.0,0.0,89,0.00,,,0.00,Rainwise IP-100,2013-02-05 21:54:00,
2013-02-05 13:59:00,54.3,51.0,30.03,SSW,202,1.2,0.0,89,0.00,,,0.00,Rainwise IP-100,2013-02-05 21:59:00,
2013-02-05 14:04:00,54.4,51.0,30.03,ESE,112,1.4,1.4,89,0.00,,,0.00,Rainwise IP-100,2013-02-05 22:04:00,
2013-02-05 14:09:00,54.5,51.0,30.03,ESE,112,1.2,1.9,88,0.00,,,0.00,Rainwise IP-100,2013-02-05 22:09:00,
2013-02-05 14:14:00,54.6,51.0,30.02,ESE,112,0.0,1.4,88,0.00,,,0.00,Rainwise IP-100,2013-02-05 22:14:00,
2013-02-05 14:19:00,54.7,50.5,30.02,ESE,112,0.0,0.0,87,0.00,,,0.00,Rainwise IP-100,2013-02-05 22:19:00,
2013-02-05 14:24:00,54.8,51.0,30.02,ESE,112,0.0,0.0,87,0.00,,,0.00,Rainwise IP-100,2013-02-05 22:24:00,
2013-02-05 14:29:00,54.9,51.0,30.02,ESE,112,0.0,0.0,87,0.00,,,0.00,Rainwise IP-100,2013-02-05 22:29:00,
2013-02-05 14:34:00,54.9,51.0,30.01,ESE,112,0.0,0.0,86,0.00,,,0.00,Rainwise IP-100,2013-02-05 22:34:00,
2013-02-05 14:39:00,54.9,51.0,30.01,ESE,112,0.0,0.0,86,0.00,,,0.00,Rainwise IP-100,2013-02-05 22:39:00,
2013-02-05 14:44:00,54.9,51.0,30.01,ESE,112,0.0,0.0,87,0.00,,,0.00,Rainwise IP-100,2013-02-05 22:44:00,
2013-02-05 14:49:00,54.9,51.0,30.01,ESE,112,0.0,2.6,87,0.00,,,0.00,Rainwise IP-100,2013-02-05 22:49:00,
2013-02-05 14:54:00,54.9,51.0,30.01,ESE,112,0.0,2.1,87,0.00,,,0.00,Rainwise IP-100,2013-02-05 22:54:00,
2013-02-05 14:59:00,54.8,51.0,30.00,SSE,157,0.0,2.3,87,0.00,,,0.00,Rainwise IP-100,2013-02-05 22:59:00,
2013-02-05 15:04:00,54.6,50.5,30.01,SSW,202,0.0,2.6,87,0.00,,,0.00,Rainwise IP-100,2013-02-05 23:04:00,
2013-02-05 15:09:00,54.5,50.5,30.01,SSW,202,1.6,3.7,87,0.00,,,0.00,Rainwise IP-100,2013-02-05 23:09:00,
2013-02-05 15:14:00,54.6,50.5,30.01,South,180,0.0,3.7,87,0.00,,,0.00,Rainwise IP-100,2013-02-05 23:14:00,
2013-02-05 15:19:00,54.4,50.5,30.01,SSW,202,2.1,4.0,87,0.00,,,0.00,Rainwise IP-100,2013-02-05 23:19:00,
2013-02-05 15:24:00,54.4,50.5,30.00,SSW,202,2.6,2.6,87,0.00,,,0.00,Rainwise IP-100,2013-02-05 23:24:00,
2013-02-05 15:29:00,54.5,50.5,30.00,SSE,157,1.4,2.8,87,0.00,,,0.00,Rainwise IP-100,2013-02-05 23:29:00,
2013-02-05 15:34:00,54.6,50.5,30.00,SSE,157,1.9,3.7,87,0.00,,,0.00,Rainwise IP-100,2013-02-05 23:34:00,
2013-02-05 15:39:00,54.5,50.5,30.00,SSW,202,0.0,3.3,87,0.00,,,0.00,Rainwise IP-100,2013-02-05 23:39:00,
2013-02-05 15:44:00,54.5,50.5,30.00,SSE,157,2.8,3.7,87,0.00,,,0.00,Rainwise IP-100,2013-02-05 23:44:00,
2013-02-05 15:49:00,54.5,50.5,30.00,SSW,202,0.0,4.2,87,0.00,,,0.00,Rainwise IP-100,2013-02-05 23:49:00,
2013-02-05 15:54:00,54.4,50.5,30.00,South,180,2.6,4.0,87,0.00,,,0.00,Rainwise IP-100,2013-02-05 23:54:00,
2013-02-05 15:59:00,54.5,50.5,30.00,SE,135,1.6,5.1,87,0.00,,,0.00,Rainwise IP-100,2013-02-05 23:59:00,
2013-02-05 16:04:00,54.4,50.5,30.01,SSW,202,3.0,5.1,87,0.00,,,0.00,Rainwise IP-100,2013-02-06 00:04:00,
2013-02-05 16:09:00,54.4,50.5,30.01,SSW,202,0.0,5.4,87,0.00,,,0.00,Rainwise IP-100,2013-02-06 00:09:00,
2013-02-05 16:14:00,54.4,50.5,30.02,WSW,247,1.6,3.0,87,0.00,,,0.00,Rainwise IP-100,2013-02-06 00:14:00,
2013-02-05 16:19:00,54.4,50.5,30.02,South,180,2.1,5.6,87,0.00,,,0.00,Rainwise IP-100,2013-02-06 00:19:00,
2013-02-05 16:24:00,54.2,50.5,30.02,South,180,1.4,5.6,87,0.00,,,0.00,Rainwise IP-100,2013-02-06 00:24:00,
2013-02-05 16:29:00,54.0,50.5,30.02,SW,225,3.3,3.3,87,0.00,,,0.00,Rainwise IP-100,2013-02-06 00:29:00,
2013-02-05 16:34:00,53.9,50.5,30.02,South,180,0.0,4.2,87,0.00,,,0.00,Rainwise IP-100,2013-02-06 00:34:00,
2013-02-05 16:39:00,53.7,50.0,30.02,SSW,202,4.0,5.4,87,0.00,,,0.00,Rainwise IP-100,2013-02-06 00:39:00,
2013-02-05 16:44:00,53.6,50.0,30.02,SSW,202,1.9,4.0,87,0.00,,,0.00,Rainwise IP-100,2013-02-06 00:44:00,
2013-02-05 16:49:00,53.5,50.0,30.02,SSW,202,1.2,3.7,87,0.00,,,0.00,Rainwise IP-100,2013-02-06 00:49:00,
2013-02-05 16:54:00,53.5,50.0,30.03,SSW,202,1.4,3.0,87,0.00,,,0.00,Rainwise IP-100,2013-02-06 00:54:00,
2013-02-05 16:59:00,53.5,50.0,30.02,SSW,202,2.3,3.3,88,0.00,,,0.00,Rainwise IP-100,2013-02-06 00:59:00,
2013-02-05 17:04:00,53.4,50.0,30.02,SSW,202,1.2,3.0,87,0.00,,,0.00,Rainwise IP-100,2013-02-06 01:04:00,
2013-02-05 17:09:00,53.3,50.0,30.02,SSW,202,1.9,2.8,87,0.00,,,0.00,Rainwise IP-100,2013-02-06 01:09:00,
2013-02-05 17:14:00,53.2,49.0,30.02,SSW,202,1.6,3.3,88,0.00,,,0.00,Rainwise IP-100,2013-02-06 01:14:00,
2013-02-05 17:19:00,53.2,49.0,30.02,SSW,202,2.1,2.1,88,0.00,,,0.00,Rainwise IP-100,2013-02-06 01:19:00,
2013-02-05 17:24:00,53.2,49.0,30.03,SSW,202,3.3,3.7,88,0.00,,,0.00,Rainwise IP-100,2013-02-06 01:24:00,
2013-02-05 17:29:00,53.2,49.0,30.02,SSW,202,5.6,5.6,88,0.00,,,0.00,Rainwise IP-100,2013-02-06 01:29:00,
2013-02-05 17:34:00,53.1,49.0,30.02,SSW,202,2.1,6.1,88,0.00,,,0.00,Rainwise IP-100,2013-02-06 01:34:00,
2013-02-05 17:39:00,53.1,49.0,30.03,SSW,202,2.1,3.5,88,0.00,,,0.00,Rainwise IP-100,2013-02-06 01:39:00,
2013-02-05 17:44:00,53.0,49.0,30.02,SSW,202,2.8,3.3,88,0.00,,,0.00,Rainwise IP-100,2013-02-06 01:44:00,
2013-02-05 17:49:00,53.0,49.0,30.03,SSW,202,0.0,3.0,88,0.00,,,0.00,Rainwise IP-100,2013-02-06 01:49:00,
2013-02-05 17:54:00,53.0,49.0,30.02,SSW,202,2.1,2.6,88,0.00,,,0.00,Rainwise IP-100,2013-02-06 01:54:00,
2013-02-05 17:59:00,53.0,49.0,30.02,SSW,202,0.0,2.8,88,0.00,,,0.00,Rainwise IP-100,2013-02-06 01:59:00,
2013-02-05 18:04:00,52.9,49.0,30.02,SSW,202,0.0,3.0,88,0.00,,,0.00,Rainwise IP-100,2013-02-06 02:04:00,
2013-02-05 18:09:00,52.9,49.0,30.02,SSW,202,1.2,2.1,88,0.00,,,0.00,Rainwise IP-100,2013-02-06 02:09:00,
2013-02-05 18:14:00,52.9,49.0,30.03,SSW,202,1.4,3.3,88,0.00,,,0.00,Rainwise IP-100,2013-02-06 02:14:00,
2013-02-05 18:19:00,52.9,49.0,30.02,SSW,202,1.9,2.1,88,0.00,,,0.00,Rainwise IP-100,2013-02-06 02:19:00,
2013-02-05 18:24:00,52.9,49.0,30.02,SSW,202,1.6,1.9,88,0.00,,,0.00,Rainwise IP-100,2013-02-06 02:24:00,
2013-02-05 18:29:00,52.8,49.0,30.03,SSW,202,3.3,3.3,88,0.00,,,0.00,Rainwise IP-100,2013-02-06 02:29:00,
2013-02-05 18:34:00,52.8,49.0,30.03,SSW,202,3.3,3.7,88,0.00,,,0.00,Rainwise IP-100,2013-02-06 02:34:00,
2013-02-05 18:39:00,52.8,49.0,30.03,SSW,202,1.9,4.0,88,0.00,,,0.00,Rainwise IP-100,2013-02-06 02:39:00,
2013-02-05 18:44:00,52.8,49.0,30.03,SSW,202,3.3,3.5,88,0.00,,,0.00,Rainwise IP-100,2013-02-06 02:44:00,
2013-02-05 18:49:00,52.8,49.0,30.03,SSW,202,1.9,3.3,88,0.00,,,0.00,Rainwise IP-100,2013-02-06 02:49:00,
2013-02-05 18:54:00,52.8,49.0,30.03,SSW,202,1.9,4.0,88,0.00,,,0.00,Rainwise IP-100,2013-02-06 02:54:00,
2013-02-05 18:59:00,52.9,49.0,30.03,SSW,202,1.4,3.0,87,0.00,,,0.00,Rainwise IP-100,2013-02-06 02:59:00,
2013-02-05 19:04:00,52.9,49.0,30.03,SSW,202,2.1,3.3,87,0.00,,,0.00,Rainwise IP-100,2013-02-06 03:04:00,
2013-02-05 19:09:00,52.9,49.0,30.03,SSW,202,2.1,3.0,87,0.00,,,0.00,Rainwise IP-100,2013-02-06 03:09:00,
2013-02-05 19:14:00,52.9,49.0,30.03,SW,225,1.2,3.0,87,0.00,,,0.00,Rainwise IP-100,2013-02-06 03:14:00,
2013-02-05 19:19:00,52.9,49.0,30.03,SW,225,1.6,2.1,87,0.00,,,0.00,Rainwise IP-100,2013-02-06 03:19:00,
2013-02-05 19:24:00,52.8,49.0,30.03,SW,225,1.2,1.9,87,0.00,,,0.00,Rainwise IP-100,2013-02-06 03:24:00,
2013-02-05 19:29:00,52.8,49.0,30.03,SSW,202,1.6,1.9,88,0.00,,,0.00,Rainwise IP-100,2013-02-06 03:29:00,
2013-02-05 19:34:00,52.8,49.0,30.03,SSW,202,1.6,2.3,88,0.00,,,0.00,Rainwise IP-100,2013-02-06 03:34:00,
2013-02-05 19:39:00,52.8,49.0,30.04,SW,225,1.4,3.0,88,0.00,,,0.00,Rainwise IP-100,2013-02-06 03:39:00,
2013-02-05 19:44:00,52.8,49.0,30.04,SW,225,0.0,2.3,87,0.00,,,0.00,Rainwise IP-100,2013-02-06 03:44:00,
2013-02-05 19:49:00,52.8,49.0,30.04,SW,225,0.0,1.4,87,0.00,,,0.00,Rainwise IP-100,2013-02-06 03:49:00,
2013-02-05 19:54:00,52.8,49.0,30.04,SW,225,0.0,1.2,87,0.00,,,0.00,Rainwise IP-100,2013-02-06 03:54:00,
2013-02-05 19:59:00,52.7,49.0,30.03,SW,225,0.0,1.2,87,0.00,,,0.00,Rainwise IP-100,2013-02-06 03:59:00,
2013-02-05 20:04:00,52.7,49.0,30.04,SW,225,0.0,1.9,88,0.00,,,0.00,Rainwise IP-100,2013-02-06 04:04:00,
2013-02-05 20:09:00,52.7,49.0,30.03,SW,225,0.0,1.2,88,0.00,,,0.00,Rainwise IP-100,2013-02-06 04:09:00,
2013-02-05 20:14:00,52.7,49.0,30.03,SW,225,0.0,0.0,88,0.00,,,0.00,Rainwise IP-100,2013-02-06 04:14:00,
2013-02-05 20:19:00,52.7,49.0,30.03,SSE,157,0.0,0.0,88,0.00,,,0.00,Rainwise IP-100,2013-02-06 04:19:00,
2013-02-05 20:24:00,52.7,49.0,30.03,SSE,157,0.0,1.2,88,0.00,,,0.00,Rainwise IP-100,2013-02-06 04:24:00,
2013-02-05 20:29:00,52.6,49.0,30.04,SSE,157,0.0,0.0,88,0.00,,,0.00,Rainwise IP-100,2013-02-06 04:29:00,
2013-02-05 20:34:00,52.6,49.0,30.05,SSW,202,0.0,2.6,88,0.00,,,0.00,Rainwise IP-100,2013-02-06 04:34:00,
2013-02-05 20:39:00,52.7,49.0,30.04,SSW,202,0.0,1.9,88,0.00,,,0.00,Rainwise IP-100,2013-02-06 04:39:00,
2013-02-05 20:44:00,52.7,49.0,30.04,SSW,202,0.0,2.1,87,0.00,,,0.00,Rainwise IP-100,2013-02-06 04:44:00,
2013-02-05 20:49:00,52.7,49.0,30.05,WSW,247,0.0,2.3,87,0.00,,,0.00,Rainwise IP-100,2013-02-06 04:49:00,
2013-02-05 20:54:00,52.7,49.0,30.05,WSW,247,0.0,0.0,87,0.00,,,0.00,Rainwise IP-100,2013-02-06 04:54:00,
2013-02-05 20:59:00,52.8,49.0,30.04,WSW,247,0.0,2.1,87,0.00,,,0.00,Rainwise IP-100,2013-02-06 04:59:00,
2013-02-05 21:00:00,52.8,49.0,30.04,WSW,247,0.0,2.1,87,0.00,,,0.00,Rainwise IP-100,2013-02-06 05:00:00,
2013-02-05 21:05:00,52.8,49.0,30.04,WSW,247,1.9,1.9,87,0.00,,,0.00,Rainwise IP-100,2013-02-06 05:05:00,
2013-02-05 21:10:00,52.7,49.0,30.05,WSW,247,0.0,2.1,87,0.00,,,0.00,Rainwise IP-100,2013-02-06 05:10:00,
2013-02-05 21:15:00,52.7,49.0,30.05,WSW,247,0.0,1.9,87,0.00,,,0.00,Rainwise IP-100,2013-02-06 05:15:00,
2013-02-05 21:20:00,52.7,49.0,30.05,WSW,247,0.0,0.0,87,0.00,,,0.00,Rainwise IP-100,2013-02-06 05:20:00,
2013-02-05 21:25:00,52.7,49.0,30.04,WSW,247,0.0,0.0,87,0.00,,,0.00,Rainwise IP-100,2013-02-06 05:25:00,
2013-02-05 21:30:00,52.7,49.0,30.05,WSW,247,0.0,0.0,87,0.00,,,0.00,Rainwise IP-100,2013-02-06 05:30:00,
2013-02-05 21:35:00,52.6,49.0,30.05,WSW,247,0.0,0.0,87,0.00,,,0.00,Rainwise IP-100,2013-02-06 05:35:00,
2013-02-05 21:40:00,52.6,49.0,30.05,WSW,247,0.0,0.0,88,0.00,,,0.00,Rainwise IP-100,2013-02-06 05:40:00,
2013-02-05 21:45:00,52.6,49.0,30.05,WSW,247,0.0,0.0,88,0.00,,,0.00,Rainwise IP-100,2013-02-06 05:45:00,
2013-02-05 21:50:00,52.6,49.0,30.05,WSW,247,0.0,1.2,87,0.00,,,0.00,Rainwise IP-100,2013-02-06 05:50:00,
2013-02-05 21:55:00,52.7,49.0,30.05,WSW,247,0.0,1.2,87,0.00,,,0.00,Rainwise IP-100,2013-02-06 05:55:00,
2013-02-05 22:00:00,52.7,49.0,30.04,SSW,202,1.2,1.4,87,0.00,,,0.00,Rainwise IP-100,2013-02-06 06:00:00,
2013-02-05 22:05:00,52.7,49.0,30.04,SSE,157,0.0,2.1,87,0.00,,,0.00,Rainwise IP-100,2013-02-06 06:05:00,
2013-02-05 22:10:00,52.6,49.0,30.05,SSE,157,0.0,0.0,87,0.00,,,0.00,Rainwise IP-100,2013-02-06 06:10:00,
2013-02-05 22:15:00,52.6,49.0,30.04,SSE,157,0.0,1.6,87,0.00,,,0.00,Rainwise IP-100,2013-02-06 06:15:00,
2013-02-05 22:20:00,52.7,48.0,30.04,SSE,157,1.2,1.2,86,0.00,,,0.00,Rainwise IP-100,2013-02-06 06:20:00,
2013-02-05 22:25:00,52.7,48.0,30.04,SSE,157,0.0,1.4,86,0.00,,,0.00,Rainwise IP-100,2013-02-06 06:25:00,
2013-02-05 22:30:00,52.7,48.0,30.04,SSE,157,0.0,0.0,86,0.00,,,0.00,Rainwise IP-100,2013-02-06 06:30:00,
2013-02-05 22:34:00,52.7,48.0,30.04,SSE,157,0.0,0.0,86,0.00,,,0.00,Rainwise IP-100,2013-02-06 06:34:00,
2013-02-05 22:39:00,52.7,48.0,30.05,SSW,202,0.0,0.0,86,0.00,,,0.00,Rainwise IP-100,2013-02-06 06:39:00,
2013-02-05 22:44:00,52.7,48.0,30.04,SSW,202,0.0,1.2,86,0.00,,,0.00,Rainwise IP-100,2013-02-06 06:44:00,
2013-02-05 22:49:00,52.7,48.0,30.05,SSW,202,0.0,0.0,86,0.00,,,0.00,Rainwise IP-100,2013-02-06 06:49:00,
2013-02-05 22:54:00,52.7,48.0,30.05,SSW,202,0.0,0.0,86,0.00,,,0.00,Rainwise IP-100,2013-02-06 06:54:00,
2013-02-05 22:59:00,52.7,48.0,30.05,SSW,202,0.0,0.0,86,0.00,,,0.00,Rainwise IP-100,2013-02-06 06:59:00,
2013-02-05 23:02:00,52.7,48.0,30.05,SSW,202,0.0,0.0,86,0.00,,,0.00,Rainwise IP-100,2013-02-06 07:02:00,
2013-02-05 23:07:00,52.7,48.0,30.04,SSW,202,0.0,0.0,86,0.00,,,0.00,Rainwise IP-100,2013-02-06 07:07:00,
2013-02-05 23:12:00,52.6,49.0,30.04,SSW,202,0.0,0.0,87,0.00,,,0.00,Rainwise IP-100,2013-02-06 07:12:00,
2013-02-05 23:17:00,52.5,49.0,30.04,SSW,202,0.0,0.0,88,0.00,,,0.00,Rainwise IP-100,2013-02-06 07:17:00,
2013-02-05 23:22:00,52.5,49.0,30.04,SSW,202,0.0,0.0,88,0.00,,,0.00,Rainwise IP-100,2013-02-06 07:22:00,
2013-02-05 23:27:00,52.4,48.0,30.03,SSW,202,0.0,0.0,87,0.00,,,0.00,Rainwise IP-100,2013-02-06 07:27:00,
2013-02-05 23:32:00,52.5,49.0,30.03,SSW,202,0.0,0.0,87,0.00,,,0.00,Rainwise IP-100,2013-02-06 07:32:00,
2013-02-05 23:37:00,52.4,48.0,30.03,SSW,202,0.0,0.0,88,0.00,,,0.00,Rainwise IP-100,2013-02-06 07:37:00,
2013-02-05 23:42:00,52.5,49.0,30.04,SSW,202,0.0,1.2,88,0.00,,,0.00,Rainwise IP-100,2013-02-06 07:42:00,
2013-02-05 23:47:00,52.5,49.0,30.03,SSW,202,0.0,1.2,88,0.00,,,0.00,Rainwise IP-100,2013-02-06 07:47:00,
2013-02-05 23:52:00,52.4,48.0,30.03,SSW,202,0.0,0.0,87,0.00,,,0.00,Rainwise IP-100,2013-02-06 07:52:00,
2013-02-05 23:57:00,52.4,48.0,30.03,SSW,202,0.0,0.0,87,0.00,,,0.00,Rainwise IP-100,2013-02-06 07:57:00,